Overview Statistics Trail Chart Weather Telemetry Raw packets
 

This is the latest recevied weather packets stored in our database for station/object SV9TNF-52. If no packets are shown the sender has not sent any weather packets the latest 10 day(s).

<< 73 74 75 76 77 78 79 >>
Time Temp. Humidity Pressure Rain* Wind** Luminosity Snow
1788158861 30° C 55% 1021 hPa 0 mm 4.02 m/s, 352° - -
1788158561 30.56° C 55% 1021 hPa 0 mm 1.79 m/s, 272° - -
1788158261 30° C 55% 1021 hPa 0 mm 0.89 m/s, 20° - -
1788157961 30° C 56% 1021 hPa 0 mm 3.58 m/s, 7° - -
1788157661 29.44° C 56% 1021 hPa 0 mm 1.79 m/s, 271° - -
1788157361 30° C 56% 1021 hPa 0 mm 4.47 m/s, 276° - -
1788157060 29.44° C 58% 1021 hPa 0 mm 1.34 m/s, 309° - -
1788156760 29.44° C 59% 1021 hPa 0 mm 2.68 m/s, 276° - -
1788156460 28.89° C 60% 1020.7 hPa 0 mm 1.34 m/s, 290° - -
1788156160 28.33° C 62% 1020.7 hPa 0 mm 3.13 m/s, 315° - -
1788155860 28.33° C 64% 1020.7 hPa 0 mm 0.89 m/s, 18° - -
1788155560 27.78° C 64% 1020.7 hPa 0 mm 2.68 m/s, 287° - -
1788155260 27.78° C 64% 1020.7 hPa 0 mm 0.89 m/s, 329° - -
1788154960 27.78° C 65% 1020.7 hPa 0 mm 0 m/s - -
1788154660 27.78° C 66% 1020.7 hPa 0 mm 0 m/s - -
1788154360 27.22° C 67% 1020.7 hPa 0 mm 0 m/s - -
1788154059 26.67° C 68% 1020.7 hPa 0 mm 1.34 m/s, 90° - -
1788153759 26.67° C 71% 1020.7 hPa 0 mm 0 m/s - -
1788153459 26.11° C 72% 1020.7 hPa 0 mm 0.45 m/s, 229° - -
1788153159 25.56° C 73% 1020.7 hPa 0 mm 1.79 m/s, 231° - -
1788152859 25° C 75% 1020.7 hPa 0 mm 2.68 m/s, 203° - -
1788152559 24.44° C 76% 1020.7 hPa 0 mm 2.68 m/s, 236° - -
1788152259 24.44° C 76% 1020.7 hPa 0 mm 2.68 m/s, 188° - -
1788151959 23.89° C 77% 1020.7 hPa 0 mm 2.68 m/s, 191° - -
1788151658 23.33° C 78% 1020.7 hPa 0 mm 4.02 m/s, 209° - -

* Rain latest hour (hover to see other rain measurements)
** Current wind speed in m/s (hover to see current wind gust speed)